Location: Erfurt
(50.9688°N, 11.0193°E)
Time: 07:54:35
(UTC+02:00)

ISS - Visible Passes

Search period start: 09 May 2021 00:00
Search period end: 19 May 2021 00:00
Orbit: 418 x 421 km, 51.6° (Epoch: 08 May)

Date Brightness Start Highest point End Pass type
(mag) Time Alt. Az. Time Alt. Az. Time Alt. Az.
09 May -2.5 02:03:26 32° E 02:03:26 32° E 02:05:29 10° E visible
09 May -3.7 03:36:22 16° W 03:38:57 78° N 03:42:21 10° E visible
10 May -1.2 01:17:26 14° E 01:17:26 14° E 01:18:00 10° E visible
10 May -3.8 02:50:22 39° W 02:51:30 83° N 02:54:53 10° E visible
10 May -3.8 04:25:00 10° W 04:28:23 88° SSW 04:31:47 10° ESE visible
11 May -3.7 02:04:21 73° E 02:04:21 73° E 02:07:27 10° E visible
11 May -3.7 03:37:33 10° W 03:40:57 82° N 03:44:20 10° E visible
12 May -2.2 01:18:16 28° E 01:18:16 28° E 01:20:00 10° ENE visible
12 May -3.7 02:51:11 19° W 02:53:29 77° N 02:56:53 10° E visible
12 May -3.7 04:26:58 10° W 04:30:17 56° SSW 04:33:37 10° ESE visible
13 May -1.2 00:32:06 13° E 00:32:06 13° E 00:32:33 10° E visible
13 May -3.7 02:05:02 43° W 02:06:01 78° N 02:09:25 10° E visible
13 May -3.9 03:39:30 10° WNW 03:42:53 73° SSW 03:46:15 10° ESE visible
14 May -3.8 01:18:38 82° NNE 01:18:38 82° NNE 01:21:57 10° E visible
14 May -3.9 02:52:03 10° W 02:55:27 87° SSW 02:58:50 10° ESE visible
14 May -2.9 04:29:02 10° W 04:32:02 30° SSW 04:35:02 10° SSE visible
14 May -3.0 22:51:33 10° SSW 22:54:31 29° SSE 22:55:39 24° ESE visible
15 May -3.9 00:27:44 10° WSW 00:31:06 87° SSE 00:34:30 10° E visible
15 May -3.8 02:04:37 10° W 02:08:00 83° N 02:11:23 10° E visible
15 May -3.4 03:41:29 10° W 03:44:42 41° SSW 03:47:54 10° SE visible
15 May -2.5 22:04:38 10° SSW 22:07:14 21° SE 22:09:51 10° E visible
15 May -3.9 23:40:19 10° WSW 23:43:41 72° SSE 23:47:03 10° ENE visible
16 May -3.7 01:17:09 10° W 01:20:32 78° N 01:23:55 10° E visible
16 May -3.8 02:54:00 10° W 02:57:20 56° SSW 03:00:39 10° ESE visible
16 May -2.0 04:31:37 10° WSW 04:33:37 15° SW 04:35:36 10° S visible
16 May -3.7 22:52:57 10° SW 22:56:16 55° SSE 22:59:35 10° E visible
17 May -3.7 00:29:40 10° W 00:33:04 78° N 00:36:27 10° E visible
17 May -3.9 02:06:33 10° WNW 02:09:55 72° SSW 02:13:18 10° ESE visible
17 May -2.5 03:43:44 10° W 03:46:22 21° SW 03:49:00 10° SSE visible
17 May -3.3 22:05:42 10° SW 22:08:53 41° SSE 22:12:06 10° E visible
17 May -3.8 23:42:13 10° W 23:45:36 83° N 23:48:59 10° E visible
18 May -3.9 01:19:06 10° W 01:22:29 87° SSW 01:22:56 64° ESE visible
18 May -3.8 22:54:45 10° WSW 22:58:08 87° SSE 23:01:32 10° E visible
